User: anonymous   Login
Location: Unspecified
(0.0000°N, 0.0000°E)
Time: 06:42:41
(UTC+00:00)
Language:

DNEPR OBJECT Y - Orbit

View from above orbital plane
View from above orbital plane
View from above satellite
View from above satellite

Ground track
Ground track

The orbit data is extracted from the following two-line orbital elements,

1 39438U 13066Y   18173.74907323  .00000177  00000-0  30458-4 0  9997
2 39438  97.5922 194.0905 0071377 159.2664 201.1469 14.77733781247104
Epoch (UTC): 22 June 2018 17:58:39
Eccentricity: 0.0071377
inclination: 97.5922°
perigee height: 586 km
apogee height: 686 km
right ascension of ascending node: 194.0905°
argument of perigee: 159.2664°
revolutions per day: 14.77733781
mean anomaly at epoch: 201.1469°
orbit number at epoch: 24710

The dashed part of the orbit path shows where the satellite is in the earth's shadow,  

DLR